Year,Month,Day,Hour,Minute,Value (Times are PST for insolation in W/m^2)
2014,10,04,00,00,0.00
2014,10,04,00,01,0.00
2014,10,04,00,02,0.00
2014,10,04,00,03,0.00
2014,10,04,00,04,0.00
2014,10,04,00,05,0.00
2014,10,04,00,06,0.00
2014,10,04,00,07,0.00
2014,10,04,00,08,0.00
2014,10,04,00,09,0.00
2014,10,04,00,10,0.00
2014,10,04,00,11,0.00
2014,10,04,00,12,0.00
2014,10,04,00,13,0.00
2014,10,04,00,14,0.00
2014,10,04,00,15,0.00
2014,10,04,00,16,0.00
2014,10,04,00,17,0.00
2014,10,04,00,18,0.00
2014,10,04,00,19,0.00
2014,10,04,00,20,0.00
2014,10,04,00,21,0.00
2014,10,04,00,22,0.00
2014,10,04,00,23,0.00
2014,10,04,00,24,0.00
2014,10,04,00,25,0.00
2014,10,04,00,26,0.00
2014,10,04,00,27,0.00
2014,10,04,00,28,0.00
2014,10,04,00,29,0.00
2014,10,04,00,30,0.00
2014,10,04,00,31,0.00
2014,10,04,00,32,0.00
2014,10,04,00,33,0.00
2014,10,04,00,34,0.00
2014,10,04,00,35,0.00
2014,10,04,00,36,0.00
2014,10,04,00,37,0.00
2014,10,04,00,38,0.00
2014,10,04,00,39,0.00
2014,10,04,00,40,0.00
2014,10,04,00,41,0.00
2014,10,04,00,42,0.00
2014,10,04,00,43,0.00
2014,10,04,00,44,0.00
2014,10,04,00,45,0.00
2014,10,04,00,46,0.00
2014,10,04,00,47,0.00
2014,10,04,00,48,0.00
2014,10,04,00,49,0.00
2014,10,04,00,50,0.00
2014,10,04,00,51,0.00
2014,10,04,00,52,0.00
2014,10,04,00,53,0.00
2014,10,04,00,54,0.00
2014,10,04,00,55,0.00
2014,10,04,00,56,0.00
2014,10,04,00,57,0.00
2014,10,04,00,58,0.00
2014,10,04,00,59,0.00
2014,10,04,01,00,0.00
2014,10,04,01,01,0.00
2014,10,04,01,02,0.00
2014,10,04,01,03,0.00
2014,10,04,01,04,0.00
2014,10,04,01,05,0.00
2014,10,04,01,06,0.00
2014,10,04,01,07,0.00
2014,10,04,01,08,0.00
2014,10,04,01,09,0.00
2014,10,04,01,10,0.00
2014,10,04,01,11,0.00
2014,10,04,01,12,0.00
2014,10,04,01,13,0.00
2014,10,04,01,14,0.00
2014,10,04,01,15,0.00
2014,10,04,01,16,0.00
2014,10,04,01,17,0.00
2014,10,04,01,18,0.00
2014,10,04,01,19,0.00
2014,10,04,01,20,0.00
2014,10,04,01,21,0.00
2014,10,04,01,22,0.00
2014,10,04,01,23,0.00
2014,10,04,01,24,0.00
2014,10,04,01,25,0.00
2014,10,04,01,26,0.00
2014,10,04,01,27,0.00
2014,10,04,01,28,0.00
2014,10,04,01,29,0.00
2014,10,04,01,30,0.00
2014,10,04,01,31,0.00
2014,10,04,01,32,0.00
2014,10,04,01,33,0.00
2014,10,04,01,34,0.00
2014,10,04,01,35,0.00
2014,10,04,01,36,0.00
2014,10,04,01,37,0.00
2014,10,04,01,38,0.00
2014,10,04,01,39,0.00
2014,10,04,01,40,0.00
2014,10,04,01,41,0.00
2014,10,04,01,42,0.00
2014,10,04,01,43,0.00
2014,10,04,01,44,0.00
2014,10,04,01,45,0.00
2014,10,04,01,46,0.00
2014,10,04,01,47,0.00
2014,10,04,01,48,0.00
2014,10,04,01,49,0.00
2014,10,04,01,50,0.00
2014,10,04,01,51,0.00
2014,10,04,01,52,0.00
2014,10,04,01,53,0.00
2014,10,04,01,54,0.00
2014,10,04,01,55,0.00
2014,10,04,01,56,0.00
2014,10,04,01,57,0.00
2014,10,04,01,58,0.00
2014,10,04,01,59,0.00
2014,10,04,02,00,0.00
2014,10,04,02,01,0.00
2014,10,04,02,02,0.00
2014,10,04,02,03,0.00
2014,10,04,02,04,0.00
2014,10,04,02,05,0.00
2014,10,04,02,06,0.00
2014,10,04,02,07,0.00
2014,10,04,02,08,0.00
2014,10,04,02,09,0.00
2014,10,04,02,10,0.00
2014,10,04,02,11,0.00
2014,10,04,02,12,0.00
2014,10,04,02,13,0.00
2014,10,04,02,14,0.00
2014,10,04,02,15,0.00
2014,10,04,02,16,0.00
2014,10,04,02,17,0.00
2014,10,04,02,18,0.00
2014,10,04,02,19,0.00
2014,10,04,02,20,0.00
2014,10,04,02,21,0.00
2014,10,04,02,22,0.00
2014,10,04,02,23,0.00
2014,10,04,02,24,0.00
2014,10,04,02,25,0.00
2014,10,04,02,26,0.00
2014,10,04,02,27,0.00
2014,10,04,02,28,0.00
2014,10,04,02,29,0.00
2014,10,04,02,30,0.00
2014,10,04,02,31,0.00
2014,10,04,02,32,0.00
2014,10,04,02,33,0.00
2014,10,04,02,34,0.00
2014,10,04,02,35,0.00
2014,10,04,02,36,0.00
2014,10,04,02,37,0.00
2014,10,04,02,38,0.00
2014,10,04,02,39,0.00
2014,10,04,02,40,0.00
2014,10,04,02,41,0.00
2014,10,04,02,42,0.00
2014,10,04,02,43,0.00
2014,10,04,02,44,0.00
2014,10,04,02,45,0.00
2014,10,04,02,46,0.00
2014,10,04,02,47,0.00
2014,10,04,02,48,0.00
2014,10,04,02,49,0.00
2014,10,04,02,50,0.00
2014,10,04,02,51,0.00
2014,10,04,02,52,0.00
2014,10,04,02,53,0.00
2014,10,04,02,54,0.00
2014,10,04,02,55,0.00
2014,10,04,02,56,0.00
2014,10,04,02,57,0.00
2014,10,04,02,58,0.00
2014,10,04,02,59,0.00
2014,10,04,03,00,0.00
2014,10,04,03,01,0.00
2014,10,04,03,02,0.00
2014,10,04,03,03,0.00
2014,10,04,03,04,0.00
2014,10,04,03,05,0.00
2014,10,04,03,06,0.00
2014,10,04,03,07,0.00
2014,10,04,03,08,0.00
2014,10,04,03,09,0.00
2014,10,04,03,10,0.00
2014,10,04,03,11,0.00
2014,10,04,03,12,0.00
2014,10,04,03,13,0.00
2014,10,04,03,14,0.00
2014,10,04,03,15,0.00
2014,10,04,03,16,0.00
2014,10,04,03,17,0.00
2014,10,04,03,18,0.00
2014,10,04,03,19,0.00
2014,10,04,03,20,0.00
2014,10,04,03,21,0.00
2014,10,04,03,22,0.00
2014,10,04,03,23,0.00
2014,10,04,03,24,0.00
2014,10,04,03,25,0.00
2014,10,04,03,26,0.00
2014,10,04,03,27,0.00
2014,10,04,03,28,0.00
2014,10,04,03,29,0.00
2014,10,04,03,30,0.00
2014,10,04,03,31,0.00
2014,10,04,03,32,0.00
2014,10,04,03,33,0.00
2014,10,04,03,34,0.00
2014,10,04,03,35,0.00
2014,10,04,03,36,0.00
2014,10,04,03,37,0.00
2014,10,04,03,38,0.00
2014,10,04,03,39,0.00
2014,10,04,03,40,0.00
2014,10,04,03,41,0.00
2014,10,04,03,42,0.00
2014,10,04,03,43,0.00
2014,10,04,03,44,0.00
2014,10,04,03,45,0.00
2014,10,04,03,46,0.00
2014,10,04,03,47,0.00
2014,10,04,03,48,0.00
2014,10,04,03,49,0.00
2014,10,04,03,50,0.00
2014,10,04,03,51,0.00
2014,10,04,03,52,0.00
2014,10,04,03,53,0.00
2014,10,04,03,54,0.00
2014,10,04,03,55,0.00
2014,10,04,03,56,0.00
2014,10,04,03,57,0.00
2014,10,04,03,58,0.00
2014,10,04,03,59,0.00
2014,10,04,04,00,0.00
2014,10,04,04,01,0.00
2014,10,04,04,02,0.00
2014,10,04,04,03,0.00
2014,10,04,04,04,0.00
2014,10,04,04,05,0.00
2014,10,04,04,06,0.00
2014,10,04,04,07,0.00
2014,10,04,04,08,0.00
2014,10,04,04,09,0.00
2014,10,04,04,10,0.00
2014,10,04,04,11,0.00
2014,10,04,04,12,0.00
2014,10,04,04,13,0.00
2014,10,04,04,14,0.00
2014,10,04,04,15,0.00
2014,10,04,04,16,0.00
2014,10,04,04,17,0.00
2014,10,04,04,18,0.00
2014,10,04,04,19,0.00
2014,10,04,04,20,0.00
2014,10,04,04,21,0.00
2014,10,04,04,22,0.00
2014,10,04,04,23,0.00
2014,10,04,04,24,0.00
2014,10,04,04,25,0.00
2014,10,04,04,26,0.00
2014,10,04,04,27,0.00
2014,10,04,04,28,0.00
2014,10,04,04,29,0.00
2014,10,04,04,30,0.00
2014,10,04,04,31,0.00
2014,10,04,04,32,0.00
2014,10,04,04,33,0.00
2014,10,04,04,34,0.00
2014,10,04,04,35,0.00
2014,10,04,04,36,0.00
2014,10,04,04,37,0.00
2014,10,04,04,38,0.00
2014,10,04,04,39,0.00
2014,10,04,04,40,0.00
2014,10,04,04,41,0.00
2014,10,04,04,42,0.00
2014,10,04,04,43,0.00
2014,10,04,04,44,0.00
2014,10,04,04,45,0.00
2014,10,04,04,46,0.00
2014,10,04,04,47,0.00
2014,10,04,04,48,0.00
2014,10,04,04,49,0.00
2014,10,04,04,50,0.00
2014,10,04,04,51,0.00
2014,10,04,04,52,0.00
2014,10,04,04,53,0.00
2014,10,04,04,54,0.00
2014,10,04,04,55,0.00
2014,10,04,04,56,0.00
2014,10,04,04,57,0.00
2014,10,04,04,58,0.00
2014,10,04,04,59,0.00
2014,10,04,05,00,0.00
2014,10,04,05,01,0.00
2014,10,04,05,02,0.00
2014,10,04,05,03,0.00
2014,10,04,05,04,0.00
2014,10,04,05,05,0.00
2014,10,04,05,06,0.00
2014,10,04,05,07,0.00
2014,10,04,05,08,0.00
2014,10,04,05,09,0.00
2014,10,04,05,10,0.00
2014,10,04,05,11,0.00
2014,10,04,05,12,0.00
2014,10,04,05,13,0.00
2014,10,04,05,14,0.00
2014,10,04,05,15,0.00
2014,10,04,05,16,0.00
2014,10,04,05,17,0.00
2014,10,04,05,18,0.00
2014,10,04,05,19,0.00
2014,10,04,05,20,0.00
2014,10,04,05,21,0.00
2014,10,04,05,22,0.00
2014,10,04,05,23,0.00
2014,10,04,05,24,0.00
2014,10,04,05,25,0.00
2014,10,04,05,26,0.00
2014,10,04,05,27,0.00
2014,10,04,05,28,0.00
2014,10,04,05,29,0.00
2014,10,04,05,30,0.00
2014,10,04,05,31,0.00
2014,10,04,05,32,0.00
2014,10,04,05,33,0.00
2014,10,04,05,34,0.00
2014,10,04,05,35,0.00
2014,10,04,05,36,0.00
2014,10,04,05,37,0.00
2014,10,04,05,38,0.00
2014,10,04,05,39,0.00
2014,10,04,05,40,0.00
2014,10,04,05,41,0.00
2014,10,04,05,42,0.00
2014,10,04,05,43,0.00
2014,10,04,05,44,0.00
2014,10,04,05,45,0.00
2014,10,04,05,46,0.00
2014,10,04,05,47,0.00
2014,10,04,05,48,0.00
2014,10,04,05,49,0.00
2014,10,04,05,50,0.00
2014,10,04,05,51,0.00
2014,10,04,05,52,0.00
2014,10,04,05,53,0.00
2014,10,04,05,54,0.00
2014,10,04,05,55,0.00
2014,10,04,05,56,0.00
2014,10,04,05,57,0.00
2014,10,04,05,58,0.00
2014,10,04,05,59,0.00
2014,10,04,06,00,0.00
2014,10,04,06,01,0.00
2014,10,04,06,02,0.00
2014,10,04,06,03,0.00
2014,10,04,06,04,0.00
2014,10,04,06,05,0.00
2014,10,04,06,06,0.00
2014,10,04,06,07,0.00
2014,10,04,06,08,0.00
2014,10,04,06,09,0.00
2014,10,04,06,10,0.00
2014,10,04,06,11,0.00
2014,10,04,06,12,0.00
2014,10,04,06,13,0.00
2014,10,04,06,14,0.00
2014,10,04,06,15,0.00
2014,10,04,06,16,0.00
2014,10,04,06,17,0.00
2014,10,04,06,18,0.00
2014,10,04,06,19,0.00
2014,10,04,06,20,0.00
2014,10,04,06,21,0.00
2014,10,04,06,22,0.00
2014,10,04,06,23,0.00
2014,10,04,06,24,0.00
2014,10,04,06,25,0.00
2014,10,04,06,26,0.00
2014,10,04,06,27,0.00
2014,10,04,06,28,0.00
2014,10,04,06,29,0.00
2014,10,04,06,30,0.00
2014,10,04,06,31,0.00
2014,10,04,06,32,0.00
2014,10,04,06,33,0.00
2014,10,04,06,34,0.00
2014,10,04,06,35,0.00
2014,10,04,06,36,0.00
2014,10,04,06,37,0.00
2014,10,04,06,38,0.00
2014,10,04,06,39,0.00
2014,10,04,06,40,0.00
2014,10,04,06,41,0.00
2014,10,04,06,42,0.00
2014,10,04,06,43,0.00
2014,10,04,06,44,0.00
2014,10,04,06,45,0.00
2014,10,04,06,46,0.00
2014,10,04,06,47,0.00
2014,10,04,06,48,0.00
2014,10,04,06,49,0.00
2014,10,04,06,50,0.00
2014,10,04,06,51,0.00
2014,10,04,06,52,0.00
2014,10,04,06,53,0.00
2014,10,04,06,54,0.00
2014,10,04,06,55,0.00
2014,10,04,06,56,0.00
2014,10,04,06,57,0.00
2014,10,04,06,58,0.00
2014,10,04,06,59,0.00
2014,10,04,07,00,0.00
2014,10,04,07,01,0.00
2014,10,04,07,02,0.00
2014,10,04,07,03,0.00
2014,10,04,07,04,0.00
2014,10,04,07,05,0.00
2014,10,04,07,06,0.00
2014,10,04,07,07,0.00
2014,10,04,07,08,0.00
2014,10,04,07,09,0.00
2014,10,04,07,10,0.00
2014,10,04,07,11,0.00
2014,10,04,07,12,0.00
2014,10,04,07,13,0.00
2014,10,04,07,14,0.00
2014,10,04,07,15,0.00
2014,10,04,07,16,0.00
2014,10,04,07,17,0.00
2014,10,04,07,18,0.00
2014,10,04,07,19,0.00
2014,10,04,07,20,0.00
2014,10,04,07,21,0.00
2014,10,04,07,22,0.00
2014,10,04,07,23,0.00
2014,10,04,07,24,0.00
2014,10,04,07,25,0.00
2014,10,04,07,26,0.00
2014,10,04,07,27,0.00
2014,10,04,07,28,0.00
2014,10,04,07,29,0.00
2014,10,04,07,30,0.00
2014,10,04,07,31,0.00
2014,10,04,07,32,0.00
2014,10,04,07,33,0.00
2014,10,04,07,34,0.00
2014,10,04,07,35,0.00
2014,10,04,07,36,0.00
2014,10,04,07,37,0.80
2014,10,04,07,38,5.00
2014,10,04,07,39,5.80
2014,10,04,07,40,7.00
2014,10,04,07,41,7.00
2014,10,04,07,42,8.50
2014,10,04,07,43,10.80
2014,10,04,07,44,11.00
2014,10,04,07,45,11.00
2014,10,04,07,46,11.40
2014,10,04,07,47,12.00
2014,10,04,07,48,12.00
2014,10,04,07,49,13.50
2014,10,04,07,50,15.80
2014,10,04,07,51,18.30
2014,10,04,07,52,21.50
2014,10,04,07,53,23.80
2014,10,04,07,54,25.50
2014,10,04,07,55,27.30
2014,10,04,07,56,29.50
2014,10,04,07,57,31.80
2014,10,04,07,58,32.00
2014,10,04,07,59,32.30
2014,10,04,08,00,32.60
2014,10,04,08,01,32.00
2014,10,04,08,02,32.00
2014,10,04,08,03,34.20
2014,10,04,08,04,36.80
2014,10,04,08,05,34.70
2014,10,04,08,06,32.20
2014,10,04,08,07,30.00
2014,10,04,08,08,31.00
2014,10,04,08,09,32.00
2014,10,04,08,10,32.80
2014,10,04,08,11,34.80
2014,10,04,08,12,37.30
2014,10,04,08,13,39.00
2014,10,04,08,14,37.40
2014,10,04,08,15,35.00
2014,10,04,08,16,33.70
2014,10,04,08,17,30.80
2014,10,04,08,18,28.20
2014,10,04,08,19,28.30
2014,10,04,08,20,30.50
2014,10,04,08,21,31.20
2014,10,04,08,22,30.00
2014,10,04,08,23,30.00
2014,10,04,08,24,31.50
2014,10,04,08,25,32.90
2014,10,04,08,26,35.80
2014,10,04,08,27,41.00
2014,10,04,08,28,45.00
2014,10,04,08,29,50.00
2014,10,04,08,30,56.20
2014,10,04,08,31,61.00
2014,10,04,08,32,64.90
2014,10,04,08,33,69.50
2014,10,04,08,34,73.20
2014,10,04,08,35,77.00
2014,10,04,08,36,76.50
2014,10,04,08,37,68.80
2014,10,04,08,38,54.50
2014,10,04,08,39,46.50
2014,10,04,08,40,41.70
2014,10,04,08,41,38.00
2014,10,04,08,42,35.00
2014,10,04,08,43,34.00
2014,10,04,08,44,33.00
2014,10,04,08,45,33.00
2014,10,04,08,46,32.10
2014,10,04,08,47,31.70
2014,10,04,08,48,30.00
2014,10,04,08,49,30.00
2014,10,04,08,50,31.00
2014,10,04,08,51,32.70
2014,10,04,08,52,34.50
2014,10,04,08,53,36.80
2014,10,04,08,54,37.00
2014,10,04,08,55,36.50
2014,10,04,08,56,34.20
2014,10,04,08,57,31.50
2014,10,04,08,58,28.70
2014,10,04,08,59,26.40
2014,10,04,09,00,25.10
2014,10,04,09,01,26.00
2014,10,04,09,02,26.00
2014,10,04,09,03,26.80
2014,10,04,09,04,30.00
2014,10,04,09,05,32.70
2014,10,04,09,06,36.00
2014,10,04,09,07,39.70
2014,10,04,09,08,44.30
2014,10,04,09,09,46.20
2014,10,04,09,10,48.60
2014,10,04,09,11,52.50
2014,10,04,09,12,57.90
2014,10,04,09,13,63.90
2014,10,04,09,14,69.50
2014,10,04,09,15,76.40
2014,10,04,09,16,79.50
2014,10,04,09,17,81.00
2014,10,04,09,18,82.10
2014,10,04,09,19,84.90
2014,10,04,09,20,87.50
2014,10,04,09,21,88.00
2014,10,04,09,22,85.70
2014,10,04,09,23,84.00
2014,10,04,09,24,85.60
2014,10,04,09,25,89.00
2014,10,04,09,26,93.20
2014,10,04,09,27,96.50
2014,10,04,09,28,97.80
2014,10,04,09,29,94.70
2014,10,04,09,30,92.50
2014,10,04,09,31,90.60
2014,10,04,09,32,90.50
2014,10,04,09,33,92.30
2014,10,04,09,34,96.80
2014,10,04,09,35,103.40
2014,10,04,09,36,107.30
2014,10,04,09,37,109.60
2014,10,04,09,38,112.20
2014,10,04,09,39,116.00
2014,10,04,09,40,119.90
2014,10,04,09,41,122.50
2014,10,04,09,42,123.00
2014,10,04,09,43,119.40
2014,10,04,09,44,115.50
2014,10,04,09,45,112.90
2014,10,04,09,46,109.00
2014,10,04,09,47,105.10
2014,10,04,09,48,99.50
2014,10,04,09,49,97.00
2014,10,04,09,50,95.00
2014,10,04,09,51,95.50
2014,10,04,09,52,98.10
2014,10,04,09,53,103.50
2014,10,04,09,54,110.90
2014,10,04,09,55,115.20
2014,10,04,09,56,116.00
2014,10,04,09,57,116.00
2014,10,04,09,58,116.00
2014,10,04,09,59,117.60
2014,10,04,10,00,122.50
2014,10,04,10,01,128.20
2014,10,04,10,02,130.00
2014,10,04,10,03,130.00
2014,10,04,10,04,139.80
2014,10,04,10,05,145.80
2014,10,04,10,06,153.10
2014,10,04,10,07,156.00
2014,10,04,10,08,154.20
2014,10,04,10,09,149.20
2014,10,04,10,10,144.40
2014,10,04,10,11,144.30
2014,10,04,10,12,154.20
2014,10,04,10,13,169.90
2014,10,04,10,14,151.80
2014,10,04,10,15,148.40
2014,10,04,10,16,148.00
2014,10,04,10,17,148.90
2014,10,04,10,18,143.30
2014,10,04,10,19,137.50
2014,10,04,10,20,133.30
2014,10,04,10,21,132.00
2014,10,04,10,22,133.90
2014,10,04,10,23,138.00
2014,10,04,10,24,141.70
2014,10,04,10,25,150.00
2014,10,04,10,26,157.60
2014,10,04,10,27,162.00
2014,10,04,10,28,161.00
2014,10,04,10,29,160.00
2014,10,04,10,30,160.00
2014,10,04,10,31,158.30
2014,10,04,10,32,160.30
2014,10,04,10,33,162.20
2014,10,04,10,34,162.60
2014,10,04,10,35,158.50
2014,10,04,10,36,152.40
2014,10,04,10,37,149.50
2014,10,04,10,38,151.00
2014,10,04,10,39,155.50
2014,10,04,10,40,158.00
2014,10,04,10,41,158.00
2014,10,04,10,42,159.00
2014,10,04,10,43,160.00
2014,10,04,10,44,162.20
2014,10,04,10,45,168.60
2014,10,04,10,46,173.30
2014,10,04,10,47,162.20
2014,10,04,10,48,139.60
2014,10,04,10,49,118.60
2014,10,04,10,50,112.30
2014,10,04,10,51,120.50
2014,10,04,10,52,136.00
2014,10,04,10,53,144.30
2014,10,04,10,54,146.80
2014,10,04,10,55,149.80
2014,10,04,10,56,152.00
2014,10,04,10,57,153.00
2014,10,04,10,58,153.00
2014,10,04,10,59,156.10
2014,10,04,11,00,167.10
2014,10,04,11,01,183.00
2014,10,04,11,02,198.20
2014,10,04,11,03,206.60
2014,10,04,11,04,204.90
2014,10,04,11,05,201.00
2014,10,04,11,06,200.00
2014,10,04,11,07,200.30
2014,10,04,11,08,202.50
2014,10,04,11,09,203.20
2014,10,04,11,10,201.00
2014,10,04,11,11,197.90
2014,10,04,11,12,194.00
2014,10,04,11,13,193.00
2014,10,04,11,14,193.90
2014,10,04,11,15,199.80
2014,10,04,11,16,204.00
2014,10,04,11,17,208.00
2014,10,04,11,18,209.00
2014,10,04,11,19,209.00
2014,10,04,11,20,212.60
2014,10,04,11,21,217.00
2014,10,04,11,22,224.10
2014,10,04,11,23,226.20
2014,10,04,11,24,221.10
2014,10,04,11,25,216.70
2014,10,04,11,26,214.50
2014,10,04,11,27,214.00
2014,10,04,11,28,216.00
2014,10,04,11,29,217.30
2014,10,04,11,30,223.10
2014,10,04,11,31,230.50
2014,10,04,11,32,240.50
2014,10,04,11,33,252.80
2014,10,04,11,34,261.00
2014,10,04,11,35,263.40
2014,10,04,11,36,259.10
2014,10,04,11,37,256.20
2014,10,04,11,38,253.00
2014,10,04,11,39,244.50
2014,10,04,11,40,235.50
2014,10,04,11,41,227.30
2014,10,04,11,42,220.00
2014,10,04,11,43,221.20
2014,10,04,11,44,227.80
2014,10,04,11,45,236.70
2014,10,04,11,46,253.40
2014,10,04,11,47,284.00
2014,10,04,11,48,315.10
2014,10,04,11,49,337.00
2014,10,04,11,50,343.50
2014,10,04,11,51,352.60
2014,10,04,11,52,367.50
2014,10,04,11,53,364.20
2014,10,04,11,54,377.20
2014,10,04,11,55,427.40
2014,10,04,11,56,486.00
2014,10,04,11,57,464.50
2014,10,04,11,58,448.10
2014,10,04,11,59,431.50
2014,10,04,12,00,391.40
2014,10,04,12,01,349.80
2014,10,04,12,02,315.50
2014,10,04,12,03,305.30
2014,10,04,12,04,317.80
2014,10,04,12,05,335.80
2014,10,04,12,06,351.00
2014,10,04,12,07,378.90
2014,10,04,12,08,424.70
2014,10,04,12,09,423.20
2014,10,04,12,10,375.30
2014,10,04,12,11,334.20
2014,10,04,12,12,297.00
2014,10,04,12,13,269.00
2014,10,04,12,14,252.20
2014,10,04,12,15,244.80
2014,10,04,12,16,243.10
2014,10,04,12,17,234.60
2014,10,04,12,18,224.20
2014,10,04,12,19,211.70
2014,10,04,12,20,203.80
2014,10,04,12,21,202.00
2014,10,04,12,22,203.50
2014,10,04,12,23,198.90
2014,10,04,12,24,184.50
2014,10,04,12,25,174.50
2014,10,04,12,26,171.40
2014,10,04,12,27,174.10
2014,10,04,12,28,180.60
2014,10,04,12,29,190.50
2014,10,04,12,30,206.60
2014,10,04,12,31,235.10
2014,10,04,12,32,259.60
2014,10,04,12,33,281.10
2014,10,04,12,34,299.70
2014,10,04,12,35,306.60
2014,10,04,12,36,330.50
2014,10,04,12,37,401.00
2014,10,04,12,38,385.00
2014,10,04,12,39,385.00
2014,10,04,12,40,385.00
2014,10,04,12,41,385.00
2014,10,04,12,42,385.00
2014,10,04,12,43,679.70
2014,10,04,12,44,759.70
2014,10,04,12,45,656.20
2014,10,04,12,46,575.70
2014,10,04,12,47,557.80
2014,10,04,12,48,530.00
2014,10,04,12,49,473.60
2014,10,04,12,50,433.00
2014,10,04,12,51,480.70
2014,10,04,12,52,519.00
2014,10,04,12,53,692.80
2014,10,04,12,54,687.40
2014,10,04,12,55,737.20
2014,10,04,12,56,752.40
2014,10,04,12,57,758.50
2014,10,04,12,58,737.60
2014,10,04,12,59,731.50
2014,10,04,13,00,726.70
2014,10,04,13,01,753.20
2014,10,04,13,02,751.20
2014,10,04,13,03,781.70
2014,10,04,13,04,785.10
2014,10,04,13,05,697.00
2014,10,04,13,06,574.70
2014,10,04,13,07,493.40
2014,10,04,13,08,486.80
2014,10,04,13,09,496.20
2014,10,04,13,10,529.10
2014,10,04,13,11,559.00
2014,10,04,13,12,662.60
2014,10,04,13,13,622.30
2014,10,04,13,14,599.00
2014,10,04,13,15,515.30
2014,10,04,13,16,345.00
2014,10,04,13,17,326.90
2014,10,04,13,18,347.40
2014,10,04,13,19,434.70
2014,10,04,13,20,439.00
2014,10,04,13,21,573.30
2014,10,04,13,22,933.00
2014,10,04,13,23,965.00
2014,10,04,13,24,965.00
2014,10,04,13,25,965.00
2014,10,04,13,26,965.00
2014,10,04,13,27,862.70
2014,10,04,13,28,278.80
2014,10,04,13,29,265.00
2014,10,04,13,30,256.10
2014,10,04,13,31,255.40
2014,10,04,13,32,271.50
2014,10,04,13,33,290.30
2014,10,04,13,34,312.00
2014,10,04,13,35,294.80
2014,10,04,13,36,291.90
2014,10,04,13,37,288.00
2014,10,04,13,38,289.20
2014,10,04,13,39,294.00
2014,10,04,13,40,307.60
2014,10,04,13,41,309.00
2014,10,04,13,42,312.90
2014,10,04,13,43,340.50
2014,10,04,13,44,350.00
2014,10,04,13,45,314.20
2014,10,04,13,46,317.80
2014,10,04,13,47,316.70
2014,10,04,13,48,322.80
2014,10,04,13,49,332.00
2014,10,04,13,50,338.00
2014,10,04,13,51,290.20
2014,10,04,13,52,280.50
2014,10,04,13,53,273.50
2014,10,04,13,54,300.70
2014,10,04,13,55,262.00
2014,10,04,13,56,263.80
2014,10,04,13,57,274.30
2014,10,04,13,58,293.50
2014,10,04,13,59,302.00
2014,10,04,14,00,302.00
2014,10,04,14,01,302.00
2014,10,04,14,02,302.00
2014,10,04,14,03,438.00
2014,10,04,14,04,846.00
2014,10,04,14,05,846.00
2014,10,04,14,06,703.00
2014,10,04,14,07,677.00
2014,10,04,14,08,705.00
2014,10,04,14,09,692.80
2014,10,04,14,10,686.00
2014,10,04,14,11,689.00
2014,10,04,14,12,706.10
2014,10,04,14,13,718.20
2014,10,04,14,14,698.00
2014,10,04,14,15,685.00
2014,10,04,14,16,776.70
2014,10,04,14,17,752.50
2014,10,04,14,18,728.00
2014,10,04,14,19,728.00
2014,10,04,14,20,425.10
2014,10,04,14,21,270.00
2014,10,04,14,22,292.90
2014,10,04,14,23,322.80
2014,10,04,14,24,305.50
2014,10,04,14,25,344.40
2014,10,04,14,26,344.60
2014,10,04,14,27,356.30
2014,10,04,14,28,351.40
2014,10,04,14,29,357.00
2014,10,04,14,30,380.80
2014,10,04,14,31,436.00
2014,10,04,14,32,436.00
2014,10,04,14,33,472.70
2014,10,04,14,34,448.80
2014,10,04,14,35,454.80
2014,10,04,14,36,447.00
2014,10,04,14,37,485.00
2014,10,04,14,38,522.00
2014,10,04,14,39,620.80
2014,10,04,14,40,590.50
2014,10,04,14,41,571.60
2014,10,04,14,42,558.80
2014,10,04,14,43,555.20
2014,10,04,14,44,554.00
2014,10,04,14,45,554.90
2014,10,04,14,46,555.00
2014,10,04,14,47,548.20
2014,10,04,14,48,513.20
2014,10,04,14,49,520.00
2014,10,04,14,50,500.00
2014,10,04,14,51,443.40
2014,10,04,14,52,498.10
2014,10,04,14,53,466.60
2014,10,04,14,54,416.00
2014,10,04,14,55,359.80
2014,10,04,14,56,386.80
2014,10,04,14,57,321.60
2014,10,04,14,58,349.90
2014,10,04,14,59,350.50
2014,10,04,15,00,322.00
2014,10,04,15,01,262.00
2014,10,04,15,02,198.90
2014,10,04,15,03,193.80
2014,10,04,15,04,192.10
2014,10,04,15,05,195.60
2014,10,04,15,06,200.20
2014,10,04,15,07,205.20
2014,10,04,15,08,212.50
2014,10,04,15,09,225.30
2014,10,04,15,10,238.60
2014,10,04,15,11,249.50
2014,10,04,15,12,259.60
2014,10,04,15,13,269.00
2014,10,04,15,14,267.40
2014,10,04,15,15,265.00
2014,10,04,15,16,265.00
2014,10,04,15,17,268.00
2014,10,04,15,18,269.00
2014,10,04,15,19,269.00
2014,10,04,15,20,267.60
2014,10,04,15,21,261.50
2014,10,04,15,22,258.00
2014,10,04,15,23,257.30
2014,10,04,15,24,259.30
2014,10,04,15,25,263.60
2014,10,04,15,26,264.90
2014,10,04,15,27,262.90
2014,10,04,15,28,260.70
2014,10,04,15,29,265.70
2014,10,04,15,30,277.00
2014,10,04,15,31,286.50
2014,10,04,15,32,287.70
2014,10,04,15,33,278.20
2014,10,04,15,34,264.40
2014,10,04,15,35,255.40
2014,10,04,15,36,252.00
2014,10,04,15,37,241.70
2014,10,04,15,38,218.60
2014,10,04,15,39,198.40
2014,10,04,15,40,192.00
2014,10,04,15,41,192.80
2014,10,04,15,42,196.90
2014,10,04,15,43,201.10
2014,10,04,15,44,204.60
2014,10,04,15,45,211.60
2014,10,04,15,46,213.70
2014,10,04,15,47,229.40
2014,10,04,15,48,241.20
2014,10,04,15,49,238.70
2014,10,04,15,50,241.00
2014,10,04,15,51,241.00
2014,10,04,15,52,257.60
2014,10,04,15,53,282.50
2014,10,04,15,54,238.50
2014,10,04,15,55,208.00
2014,10,04,15,56,201.00
2014,10,04,15,57,202.50
2014,10,04,15,58,189.50
2014,10,04,15,59,200.80
2014,10,04,16,00,189.60
2014,10,04,16,01,186.60
2014,10,04,16,02,167.00
2014,10,04,16,03,130.20
2014,10,04,16,04,120.40
2014,10,04,16,05,116.60
2014,10,04,16,06,114.50
2014,10,04,16,07,115.80
2014,10,04,16,08,116.00
2014,10,04,16,09,116.50
2014,10,04,16,10,118.80
2014,10,04,16,11,121.50
2014,10,04,16,12,125.50
2014,10,04,16,13,129.40
2014,10,04,16,14,133.60
2014,10,04,16,15,147.50
2014,10,04,16,16,173.40
2014,10,04,16,17,183.40
2014,10,04,16,18,191.00
2014,10,04,16,19,184.90
2014,10,04,16,20,166.80
2014,10,04,16,21,146.00
2014,10,04,16,22,127.20
2014,10,04,16,23,112.70
2014,10,04,16,24,103.80
2014,10,04,16,25,100.00
2014,10,04,16,26,97.40
2014,10,04,16,27,97.00
2014,10,04,16,28,96.90
2014,10,04,16,29,94.70
2014,10,04,16,30,91.60
2014,10,04,16,31,86.00
2014,10,04,16,32,81.90
2014,10,04,16,33,81.00
2014,10,04,16,34,82.60
2014,10,04,16,35,85.70
2014,10,04,16,36,94.00
2014,10,04,16,37,100.00
2014,10,04,16,38,107.50
2014,10,04,16,39,113.60
2014,10,04,16,40,119.40
2014,10,04,16,41,125.50
2014,10,04,16,42,131.20
2014,10,04,16,43,134.00
2014,10,04,16,44,133.40
2014,10,04,16,45,131.20
2014,10,04,16,46,128.90
2014,10,04,16,47,133.90
2014,10,04,16,48,137.00
2014,10,04,16,49,124.50
2014,10,04,16,50,117.40
2014,10,04,16,51,113.80
2014,10,04,16,52,113.00
2014,10,04,16,53,113.00
2014,10,04,16,54,113.00
2014,10,04,16,55,113.00
2014,10,04,16,56,113.00
2014,10,04,16,57,113.00
2014,10,04,16,58,111.80
2014,10,04,16,59,109.00
2014,10,04,17,00,106.20
2014,10,04,17,01,102.60
2014,10,04,17,02,100.40
2014,10,04,17,03,97.90
2014,10,04,17,04,94.60
2014,10,04,17,05,92.50
2014,10,04,17,06,91.00
2014,10,04,17,07,90.40
2014,10,04,17,08,90.00
2014,10,04,17,09,90.00
2014,10,04,17,10,90.90
2014,10,04,17,11,91.30
2014,10,04,17,12,93.00
2014,10,04,17,13,93.80
2014,10,04,17,14,95.00
2014,10,04,17,15,95.00
2014,10,04,17,16,95.00
2014,10,04,17,17,94.90
2014,10,04,17,18,93.00
2014,10,04,17,19,93.00
2014,10,04,17,20,93.00